Regional Weather Roundup
Issued by NWS Pendleton, OR

Home | Current Version | Previous Version | Text Only | Print | Product List | Glossary On
Versions: 1 2 3 4 5 6 7 8 9 10 11 12 13 14 15 16 17 18 19 20 21 22 23 24 25 26 27 28 29 30 31 32 33 34 35 36 37 38 39 40 41 42 43 44 45 46 47 48 49 50
000
ASUS46 KPDT 210504
RWRPDT
PENDLETON REGIONAL WEATHER ROUNDUP
NATIONAL WEATHER SERVICE PENDLETON OREGON
1000 PM PDT MON APR 20 2015

NOTE: FAIR INDICATES FEW OR NO CLOUDS BELOW 12,000 FEET WITH NO
SIGNIFICANT WEATHER AND/OR OBSTRUCTIONS TO VISIBILITY.

# INDICATES UNOFFICIAL STATION AND DATA

WAZ520-210610-
EAST SLOPES OF WASHINGTON CASCADES

CITY            SKY/WX      TMP DP  RH  WIND    PRES   REMARKS
#BULLFROG       N/A         59  41  51  S1      N/A
#BULLFROG 2SW   N/A         53  37  54  W1      27.48R
#BUMPING DAM    N/A         50  N/A N/A CALM    N/A
#CLE ELUM HS    N/A         60  40  47  CALM    29.80S
#CLE ELUM LAKE  N/A         56  38  51  CALM    29.77R
#CLIFFDEL 2NW   N/A         56  37  49  N1      N/A
#EASTON DOT     N/A         56  35  45  N2      N/A
#ELK HTS DOT    N/A         63  63  100 W2      N/A
#GLENWOOD       N/A         50  40  68  CALM    29.80R
#MANASTASH CYN  N/A         51  38  61  CALM    29.85S
#NELSON         N/A         57  41  55  CALM    29.82R
#NELSON 3SW     N/A         53  40  61  CALM    30.01S
#NILE           N/A         61  39  44  W1      29.09R
#PEOH POINT     N/A         54  33  45  SW5     N/A
#RONALD 2NW     N/A         56  40  55  N1      29.76R
#SNOWDEN        N/A         52  27  38  CALM    N/A
#SOUTH BLEWITT  N/A         51  42  71  CALM    N/A
#TEANAWAY 4NE   N/A         57  41  55  W2      N/A
#TROUT LAKE 1NE N/A         56  43  62  CALM    29.79R
$$

WAZ521-210610-
SIMCOE HIGHLANDS

CITY            SKY/WX      TMP DP  RH  WIND    PRES   REMARKS
#BICKLETON HS   N/A         50  25  37  CALM    N/A
#SATUS PASS DOT N/A         49  32  52  CALM    N/A
#CENTERVILLE 4W N/A         60  38  44  W1      29.57R
#CENTERVILLE 1SWN/A         54  38  55  CALM    29.76R
#GOLDENDALE     N/A         60  37  42  E3      N/A
#GOLDENDALE 1NE N/A         57  27  31  N6      N/A
#GOLDENDALE 5WNWN/A         55  40  57  CALM    29.77S
#GOODNOE HILLS  N/A         66  32  28  NE3     N/A
#LYLE 6NE       N/A         65  37  35  CALM    29.75R
$$

WAZ026-210610-
KITTITAS VALLEY

CITY            SKY/WX      TMP DP  RH  WIND    PRES   REMARKS
ELLENSBURG AP   CLEAR       63  38  39  NW12    29.82R
YTC-OPS AREA    CLEAR       60  33  36  W16     29.83S
#ELLENSBURG CWU N/A         62  39  43  N7      29.73R
#ELLENSBURG 3NE N/A         62  40  44  N6      29.82R
#ELLENSBURG 1E  N/A         62  36  38  CALM    N/A
#KITTITAS 4N    N/A         56  37  49  N2      28.15R
#KITTITAS 3S    N/A         55  43  64  CALM    29.78R
#MANASTASH RDG  N/A         62  61  97  NE2     N/A
#ROCKY CYN DOT  N/A         63  38  39  N8      N/A
#RYEGRASS DOT   N/A         59  32  36  W6      N/A
#THORP 6N       N/A         61  39  44  W6      29.80R
$$

WAZ027-210610-
YAKIMA VALLEY

CITY            SKY/WX      TMP DP  RH  WIND    PRES   REMARKS
SUNNYSIDE AP    CLEAR       53  37  54  N7      29.79R
YAKIMA AIRPORT  CLEAR       55  40  57  W8      29.80R
YAKIMA-VAGABOND CLEAR       60  35  39  SE5     29.81R
#DONALD 2NE     N/A         66   5   9  NE1     28.65R
#GRANDVIEW      N/A         61  34  36  CALM    29.79R
#MABTON         N/A         67  33  28  S2      29.77S
#MOXEE 2E       N/A         57  21  24  E3      29.91
#NACHES 2SW     N/A         61  42  50  W3      29.82R
#PARKER DOT     N/A         69  33  26  W7      N/A
#SELAH 8E       N/A         64  29  27  S7      N/A
#TERRACE HTS    N/A         64  34  33  CALM    29.74R
#I82 S UMTANUM RN/A         61  33  35  N5      N/A
#UNION GAP DOT  N/A         65  35  33  N2      N/A
#WAPATO 4NE     N/A         66   5   9  NE1     28.65R
#WEST VALLEY    N/A         59  40  49  CALM    29.75S
#W YAKIMA       N/A         63  39  41  W3      29.77R
#WHITE SWAN 5E  N/A         57  40  53  W2      29.77R
#ZILLAH DOT     N/A         62  38  41  E7      N/A
$$

WAZ028-210610-
LOWER COLUMBIA BASIN...WASHINGTON

CITY            SKY/WX      TMP DP  RH  WIND    PRES   REMARKS
PASCO           CLEAR       52  44  74  N6      29.78R
PROSSER AWOS    N/A         59  39  47  E1      29.82R
RICHLAND AWOS   CLEAR       63  37  38  CALM    29.78R
#BASIN CITY 5SW N/A         58  43  57  NE2     29.78R
#BENTON CITY    N/A         61  38  42  W2      29.68R
#CONNELL 5N     N/A         58  39  49  CALM    29.77S
#CONNELL 5NW    N/A         60  43  53  CALM    29.73S
#ELTOPIA 6NW    N/A         69  35  28  CALM    28.76S
#KAHLOTUS       N/A         65  35  33  CALM    29.78R
#KENNEWICK      N/A         53  37  54  W1      27.48R
#KENNEWICK 3S   N/A         65  34  31  CALM    29.76S
#PATERSON       N/A         69  35  28  NE3     29.75S
#PROSSER DOT    N/A         64  36  35  N2      N/A
#PROSSER        N/A         66  28  24  S1      29.76S
#SAGEMOOR 2W    N/A         62  39  43  CALM    29.62R
#TOUCHET 2S     N/A         50  44  80  CALM    29.76R
#WEST PASCO     N/A         63  36  36  CALM    29.72R
$$

WAZ029-210610-
FOOTHILLS OF THE BLUES...WASHINGTON

CITY            SKY/WX      TMP DP  RH  WIND    PRES   REMARKS
WALLA WALLA AP  CLEAR       61  42  50  E9      29.80S
#CLYDE 6NW      N/A         55  36  49  CALM    29.77S
#DAYTON SCHOOL  N/A         57  36  45  N5      29.84S
#LOWDEN 2SE     N/A         54  46  74  E2      29.75R
#PLEASANT VIEW 1N/A         63  31  30  CALM    29.80S
#PRESCOTT       N/A         52  43  71  CALM    29.76S
#SUDBURY        N/A         50  N/A N/A CALM    N/A
#WHITMAN COLLEGEN/A         62  44  52  E3      29.81F
#WAITSBURG 5S   N/A         57  40  53  E2      29.87S
#WAITSBURG 8N   N/A         49  17  28  CALM    29.65S
#WALLA WALLA 5E N/A         55  43  64  E5      N/A
#WALLA WALLA U  N/A         63  45  52  CALM    29.76S
#WHITMAN MISSIONN/A         57  46  67  CALM    29.79R
$$

WAZ030-210610-
BLUE MOUNTAINS...WASHINGTON

CITY            SKY/WX      TMP DP  RH  WIND    PRES   REMARKS
#DAYTON 8SE     N/A         50  40  68  SE3     29.63S
#DIXIE 5SE      N/A         59  33  37  CALM    29.79S
$$

ORZ009-041-WAZ024-210610-
COLUMBIA RIVER GORGE

CITY            SKY/WX      TMP DP  RH  WIND    PRES   REMARKS
HOOD RIVER AP   CLEAR       63  39  41  W3      29.80R
THE DALLES AP   CLEAR       61  40  46  E5      29.78R
#ARLINGTON AIRPON/A         62  36  38  NW2     29.83R
#CELILO DOT     N/A         66  36  33  CALM    N/A
#LYLE           N/A         67  42  40  CALM    29.78R
#MARYHILL       N/A         67  33  28  CALM    N/A
#MOSIER 1S      N/A         67  28  23  SW6     29.79R
#MURDOCK        N/A         66  43  43  CALM    29.78R
#RUFUS DOT      N/A         65  38  37  S8      N/A

$$

ORZ510-210610-
NORTH CENTRAL OREGON

CITY            SKY/WX      TMP DP  RH  WIND    PRES   REMARKS
#CHENOWITH 1W   N/A         64  37  37  W10     N/A
#COW CYN RST AREN/A         60  60  100 NE3     N/A
#DUFUR 9E       N/A         67  34  29  CALM    29.81R
#GRASS VALLEY 1SN/A         58  34  40  CALM    29.80F
#KENT DOT       N/A         60  28  29  NE5     N/A
#MAUPIN SCHOOL  N/A         64  39  40  CALM    29.82R
#MORO SCHOOL    N/A         50  39  66  CALM    29.84R
#SHANIKO 5WSW   N/A         59  27  29  NE10    N/A
#SHANIKO 4NW    N/A         59  29  32  NE3     29.88S
#TYGH VALLEY 2NEN/A         61  38  42  CALM    29.78R
#WAPANITIA AIRPON/A         57  39  51  W2      29.81R
#WASCO DOT      N/A         51  41  68  SE3     N/A
#WASCO 5NE      N/A         51  36  56  CALM    29.79R
$$

ORZ511-210610-
CENTRAL OREGON

CITY            SKY/WX      TMP DP  RH  WIND    PRES   REMARKS
BEND AIRPORT    N/A         N/A N/A N/A MISG    N/A
MADRAS AIRPORT  CLEAR       55  34  45  N7      29.87R
PRINEVILLE AP   CLEAR       46  27  47  NW5     29.87R
REDMOND AIRPORT CLEAR       57  28  33  W7      29.86R
#BEND 6E        N/A         57  23  27  CALM    29.72R
#BEND 1SW       N/A         48  31  51  NE1     N/A
#BEND-AWBREY    N/A         56  32  40  CALM    29.81R
#BEND-KIM LN    N/A         57  28  33  CALM    29.85R
#CROOKED RVR RANN/A         60  33  36  CALM    29.80R
#CULVER         N/A         56  36  47  CALM    29.82R
#LAKE BILLY CHINN/A         60  -7   6  CALM    29.93R
#POWELL BUTTE 3EN/A         55  27  34  SW3     N/A
#POWELL BUTTE   N/A         54  29  38  SW1     29.52R
#PRINEVILLE 3N  N/A         48  35  60  E3      29.79R
#WARM SPRINGS   N/A         69  39  33  SW8     29.80R

$$


ORZ509-210610-
EAST SLOPES OF OREGON CASCADES

CITY            SKY/WX      TMP DP  RH  WIND    PRES   REMARKS
#CAMP SHERMAN   N/A         49  35  58  CALM    29.81F
#LA PINE 4NW    N/A         51  35  54  CALM    29.87R
#MT BACHELOR-MIDN/A         45  30  55  S10     N/A
#SISTERS AIRPOR N/A         50  38  63  N1      30.17S
#SISTERS ODOT   N/A         50  N/A N/A CALM    N/A
#SISTERS 3N     N/A         47  27  45  CALM    29.90S
#SUNRIVER       N/A         50  30  46  CALM    29.74R
#TUMALO 3W      N/A         59  35  40  W5      29.67R
#WANOGA BUTTE D N/A         51  28  41  N2      N/A

$$

ORZ044-210610-
LOWER COLUMBIA BASIN...OREGON

CITY            SKY/WX      TMP DP  RH  WIND    PRES   REMARKS
HERMISTON       CLEAR       54  39  57  S8      29.78R
#BOARDMAN 8SW   N/A         59  38  45  N3      29.77R
#ECHO 8SW       N/A         53  39  59  SW2     29.80S
#IONE SCHOOL    N/A         54  37  52  CALM    29.78R
#IRRIGON 4NW    N/A         61  41  48  E2      N/A
#UMATILLA SCHOOLN/A         59  48  67  CALM    29.84S
#UMATILLA       N/A         72  39  30  CALM    29.69S
$$

ORZ507-210610-
NORTHERN FOOTHILLS OF THE BLUES

CITY            SKY/WX      TMP DP  RH  WIND    PRES   REMARKS
PENDLETON AIRPT CLEAR       55  38  53  SE6     29.81R
#ADAMS 3WNW     N/A         45  37  73  CALM    29.79R
#ATHENA         N/A         48  38  68  CALM    29.82S
#CAYUSE         N/A         58  41  53  E8      29.77S
#HELIX SCHOOL   N/A         51  37  59  CALM    29.79R
#HELIX 3N       N/A         55  36  49  CALM    29.80S
#HOLDMAN 5SE    N/A         53  38  57  E3      29.82R
#HOLDMAN 6E     N/A         47  38  71  CALM    29.60R
#M-F FERNDALE   N/A         60  41  49  CALM    29.78S
#M-F GROVE ELEM N/A         58  39  49  CALM    29.79S
#M-FREEWATER 5SEN/A         57  42  57  CALM    29.81S
#PENDLETON DNTN N/A         58  33  39  CALM    29.81S
#PDT AQUATIC CTRN/A         58  32  37  CALM    29.83S
#PENDLETON 5NE  N/A         49  41  74  CALM    29.78S
#PDT SUNRIDGE   N/A         52  40  63  CALM    29.82R
#PENDLETON 7NW  N/A         52  38  59  CALM    29.76S
#PILOT ROCK     N/A         54  36  50  CALM    29.85R
#TUTUILLA       N/A         49  40  71  CALM    29.80R
#UMAPINE 2E     N/A         55  44  66  SE3     29.75S
#WESTON SCHOOL  N/A         55  35  47  CALM    29.81S

$$

ORZ508-210610-
SOUTHERN FOOTHILLS OF THE BLUES

CITY            SKY/WX      TMP DP  RH  WIND    PRES   REMARKS
LEXINGTON       CLEAR       54  34  47  SE12    29.84R
#AJAX           N/A         63  28  26  CALM    29.79R
#CONDON SCHOOL  N/A         60  33  36  CALM    29.83R
#CONDON 5W      N/A         60  26  27  E1      29.85R
#FOSSIL SCHOOL  N/A         52  36  54  CALM    29.84R
#HEPPNER EOC    N/A         56  39  53  SE6     29.72S
#HEPPNER 4NE    N/A         57  35  43  SE6     29.79S
#LEXINGTON 2SE  N/A         57  35  43  SE6     29.79R
#MIKKALO        N/A         55  30  38  NE2     29.83R
#RUGGS 5NE      N/A         51  31  46  CALM    30.01S
#RUGGS 2SW      N/A         55  34  45  S8      29.80S

$$

ORZ502-503-210610-
BLUE MOUNTAINS

CITY            SKY/WX      TMP DP  RH  WIND    PRES   REMARKS
MEACHAM         CLEAR       42  35  76  CALM    29.89S
#BATTLE MTN DOT N/A         50  36  58  CALM    N/A
#HARDMAN 10S    N/A         49  33  54  CALM    29.92S
#HEPPNER 15SE   N/A         43  35  73  CALM    29.80S
#LADD CYN SMT   N/A         46  34  63  N2      N/A
#LADD CREEK ODOTN/A         53  38  57  SW3     N/A
#LONG CREEK HS  N/A         49  40  71  CALM    29.84R
#N POWDER DOT   N/A         53  39  59  CALM    N/A
#PIKES PEAK     N/A         59  35  40  N1      27.99S
#TOLLGATE       N/A         45  35  68  CALM    29.86S
#TROY SCHOOL    N/A         56  41  57  CALM    29.66R
#UKIAH          N/A         44  38  79  CALM    29.91R
#WESTON 4E      N/A         57  35  43  E1      29.73S
$$

ORZ505-210610-
JOHN DAY BASIN

CITY            SKY/WX      TMP DP  RH  WIND    PRES   REMARKS
JOHN DAY        CLEAR       58  30  34  CALM    29.88R
#JOHN DAY KJDY  N/A         54  36  50  CALM    29.94R
#DAYVILLE SCHOOLN/A         58  30  34  CALM    29.83R
#MITCHELL       N/A         52  34  50  E2      30.01R
#MITCHELL 8NW   N/A         61  29  30  CALM    29.74R
#MONUMENT HS    N/A         59  37  44  CALM    29.85R
#MT. VERNON 5SE N/A         51  29  42  CALM    29.84R
#WINLOCK        N/A         52  34  50  CALM    29.95R
$$

ORZ506-210610-
OCHOCO AND JOHN DAY HIGHLANDS

CITY            SKY/WX      TMP DP  RH  WIND    PRES   REMARKS
#BUCK CREEK DOT N/A         59  59  100 W3      N/A
#HORSE RIDGE DO N/A         43  18  36  SE3     N/A
#KEYES SMT DOT  N/A         57  30  35  CALM    N/A
#PAULINA SCHOOL N/A         51  30  44  CALM    29.85R
#PINE MTN OBS   N/A         51  18  27  N7      N/A
#PRAIRIE CITY   N/A         41  32  70  CALM    29.95R
#SENECA         N/A         47  N/A N/A CALM    N/A
#SENECA 9NW     N/A         43  29  57  CALM    29.85R
$$

ORZ049-210610-
GRANDE RONDE VALLEY

CITY            SKY/WX      TMP DP  RH  WIND    PRES   REMARKS
LA GRANDE       CLEAR       55  30  38  N3      29.85R
#COVE           N/A         51  41  68  N1      29.87S
#COVE SCHOOL    N/A         55  39  55  CALM    29.85R
#ELGIN 3N       N/A         51  35  54  CALM    29.85R
#ELGIN 1E       N/A         57  37  47  CALM    N/A
#IMBLER SCHOOL  N/A         51  37  59  NW3     29.83R
#ISLAND CITY 4N N/A         62  45  54  CALM    29.81R
#LADD CYN DOT   N/A         56  36  47  SE9     N/A
#LA GRANDE ELEM N/A         58  37  45  CALM    29.88S
#UNION 1S       N/A         51  38  61  CALM    29.73R
$$

ORZ050-210610-
WALLOWA COUNTY

CITY            SKY/WX      TMP DP  RH  WIND    PRES   REMARKS
#ENTERPRISE HS  N/A         48  35  60  CALM    29.90R
#IMNAHA SCHOOL  N/A         56  37  49  S2      29.83R
#IMNAHA 10S     N/A         55  35  47  SW5     29.85R
#JOSEPH 3N      N/A         46  29  51  CALM    29.93R
#JOSEPH 3W      N/A         46  34  63  SW3     29.78R
#LOSTINE        N/A         53  36  52  SW2     29.63R
#MT HOWARD 8000 N/A         40  28  62  NW2     30.02S
#PROMISE 1S     N/A         50  37  61  E2      29.91R
#SHEEP RDG 7000 N/A         44  31  60  CALM    29.86S
#WALLOWA SCHOOL N/A         52  38  59  CALM    30.74R



$$



USA.gov is the U.S. government's official web portal to all federal, state and local government web resources and services.